DELFI-N3XT

Last updated on Thu Nov 21 2024 00:03:39 GMT+0000 (Coordinated Universal Time)

1 39428U 13066N 24325.22046912 .00013977 00000+0 15984-2 0 9999 2 39428 97.8353 239.8473 0091608 302.4572 56.7808 14.83088276589177
UTC large
Height (km)
Speed (km/s)
/
Latitude / Longitude
Inclination (degrees)
Orbital Period (minutes)
Azimuth
Elevation
Range (km)
Doppler Factor

Next 0 passes for location: London (51.5072 / 0.1276)

Sorry there are no passes over London.